Regional Weather Roundup
Issued by NWS State College, PA

Home | Current Version | Previous Version | Graphics & Text | Print | Product List | Glossary Off
Versions: 1 2 3 4 5 6 7 8 9 10 11 12 13 14 15 16 17 18 19 20 21 22 23 24 25 26 27 28 29 30 31 32 33 34 35 36 37 38 39 40 41 42 43 44 45 46 47 48 49 50

000
ASUS41 KCTP 011210
RWRCTP

REGIONAL WEATHER ROUNDUP
NATIONAL WEATHER SERVICE STATE COLLEGE PA
700 AM EST SUN FEB 01 2015

Note: "fair" indicates few or no clouds below 12,000 feet with no
significant weather and/or obstructions to visibility.

* = STATION THAT DOES NOT REPORT PRECIPITATION /E.G. RAIN...SNOW...ETC/
    THUNDER OR FOG.

PAZ002>004-007>009-013>016-020>023-029>032-011300-
WESTERN PENNSYLVANIA

CITY           SKY/WX    TMP DP  RH WIND       PRES   REMARKS
ERIE           LGT SNOW  28  23  81 CALM      30.17S
MEADVILLE      LGT SNOW  25  21  85 CALM      30.12S FOG
FRANKLIN*      CLOUDY    23  19  86 S3        30.15S
NEW CASTLE     LGT SNOW  25  24  96 CALM      30.17S FOG
BEAVER COUNTY  NOT AVBL
BUTLER*        CLOUDY    25  21  86 S5        30.18R
PITTSBURGH INT LGT SNOW  26  25  96 S3        30.17R VSB 1
PITTSBURGH     LGT SNOW  25  21  85 S6        30.17R FOG
INDIANA*       CLOUDY    25  23  93 SW5       30.20S
LATROBE        LGT SNOW  27  27 100 SW12      30.20S
WASHINGTON CO* CLOUDY    27  25  93 S3        30.18S
$$

PAZ004>006-010>012-017>019-024>028-033>037-041-042-045-046-049>053-011300-
CENTRAL PENNSYLVANIA

CITY           SKY/WX    TMP DP  RH WIND       PRES   REMARKS
BRADFORD       CLOUDY    21  18  88 SW5       30.10R FOG     WCI  15
DUBOIS         LGT SNOW  22  18  85 SW6       30.11S FOG     WCI  14
CLEARFIELD     CLOUDY    21  15  78 CALM      30.15R
JOHNSTOWN      CLOUDY    24  19  81 SW6       30.10S
ALTOONA        CLOUDY    26  16  65 S8        30.16R
STATE COLLEGE  CLOUDY    25  16  68 CALM      30.17R
WILLIAMSPORT   CLOUDY    23  13  65 CALM      30.20S
SELINSGROVE    CLOUDY    21  16  81 CALM      30.22S
FT INDIANTOWN  CLOUDY    22  14  71 CALM      30.23R
CAPITAL CITY   CLOUDY    24  16  71 CALM      30.24R
HARRISBURG     CLOUDY    21  15  78 SE3       30.23S
YORK           CLOUDY    25  19  78 CALM      30.23R
$$

PAZ038>040-043-044-047-048-054-055-060>062-067>071-011300-
EASTERN PENNSYLVANIA

CITY           SKY/WX    TMP DP  RH WIND       PRES   REMARKS
SCRANTON       CLOUDY    22  12  65 S6        30.15S WCI  14
MOUNT POCONO   CLOUDY    20  12  71 W7        30.08R WCI  11
ALLENTOWN      CLOUDY    25  14  63 SW6       30.21S
QUAKERTOWN*    CLOUDY    25  14  63 W3        30.21S
READING        CLOUDY    25  13  60 CALM      30.22S
LANCASTER      CLOUDY    21  12  68 CALM      30.23R
COATESVILLE    CLOUDY    27  18  69 CALM      30.22S
POTTSTOWN      CLOUDY    26  13  57 CALM      30.24R
BLUE BELL      CLOUDY    28  16  59 CALM      30.23S
DOYLESTOWN     CLOUDY    23  13  65 SW5       30.21S
WILLOW GROVE   NOT AVBL
NORTH PHILA    CLOUDY    29  12  49 W5        30.26S
PHILADELPHIA   CLOUDY    27  14  58 S3        30.26F
$$



USA.gov is the U.S. government's official web portal to all federal, state and local government web resources and services.